Terminal Aerodrome Forecast
Issued by NWS Green Bay, WI

Home | Current Version | Previous Version | Graphics & Text | Print | Product List | Glossary On
Versions: 1 2 3 4 5 6 7 8 9 10 11 12 13 14 15 16 17 18 19 20 21 22 23 24 25 26 27 28 29 30 31 32 33 34 35 36 37 38 39 40 41 42 43 44 45 46 47 48 49 50
000
FTUS43 KGRB 201700
TAFGRB
TAF
KGRB 201728Z 2018/2118 34005KT P6SM OVC016
     FM202000 26005KT P6SM SCT016 BKN035
     FM202300 13005KT P6SM SCT040
     FM210500 11003KT 5SM BR SCT040 SCT070
     FM211000 08003KT 1 1/2SM BR SCT040 BKN070
     FM211400 10006KT P6SM BKN045=

USA.gov is the U.S. government's official web portal to all federal, state and local government web resources and services.